Weather History for KGRF - November, 2011

Change the Weather History Date:

Tuesday, November 22, 2011

  Actual Average Record
Temperature  
Mean Temperature 48 °F -  
Max Temperature 54 °F 48 °F 54 °F (2011)
Min Temperature 42 °F 35 °F 21 °F (2013)
Degree Days  
Heating Degree Days 17    
Moisture  
Dew Point 44 °F    
Average Humidity 90    
Maximum Humidity 100    
Minimum Humidity 71    
Precipitation  
Precipitation 1.76 in - - ()
Sea Level Pressure  
Sea Level Pressure 29.53 in    
Wind  
Wind Speed 13 mph (ESE)    
Max Wind Speed 26 mph    
Max Gust Speed 38 mph    
Visibility 7 miles    
Events Rain    
Averages and records for this station are not official NWS values.
T = Trace of Precipitation, MM = Missing Value Source: NWS Daily Summary

Daily Weather History Graph

Daily Weather History Graph

Search for Another Location

Airport or City:

Trip Planner

Search our weather history database for the weather conditions in past years. The results will help you decide how hot, cold, wet, or windy it might be!

Date:

Astronomy

Nov. 22, 2011 Rise Set
Actual Time 7:23 AM PST 4:28 PM PST
Civil Twilight 6:49 AM PST 5:02 PM PST
Nautical Twilight 6:12 AM PST 5:40 PM PST
Astronomical Twilight 5:35 AM PST 6:16 PM PST
Moon 4:13 AM PST (11/22) 2:37 PM PST (11/22)
Length of Visible Light 10h 12m
Length of Day
9h 05m
Waning Crescent, 9% of the Moon is Illuminated
Nov 22
Waning Crescent
Nov 24
New
Dec 2
First Quarter
Dec 10
Full
Dec 17
Last Quarter

Hourly Weather History & Observations

Time (PST) Temp. Windchill Dew Point Humidity Pressure Visibility Wind Dir Wind Speed Gust Speed Precip Events Conditions
12:08 AM 50.0 °F - 42.8 °F 76% 29.54 in 10.0 mi SSE 17.3 mph 25.3 mph N/A   Overcast
12:19 AM 50.0 °F - 42.8 °F 76% 29.53 in 10.0 mi SSE 18.4 mph 24.2 mph N/A   Overcast
12:38 AM 51.8 °F - 42.8 °F 71% 29.52 in 10.0 mi SSE 20.7 mph 27.6 mph N/A Rain Light Rain
12:48 AM 51.8 °F - 42.8 °F 71% 29.52 in 10.0 mi SSE 20.7 mph 27.6 mph N/A   Overcast
12:55 AM 51.6 °F - 42.4 °F 71% 29.51 in 10.0 mi SE 21.9 mph 29.9 mph 0.01 in   Overcast
12:57 AM 51.8 °F - 42.8 °F 71% 29.51 in 10.0 mi SSE 23.0 mph 29.9 mph N/A Rain Light Rain
1:04 AM 51.8 °F - 42.8 °F 71% 29.51 in 10.0 mi SE 19.6 mph 31.1 mph N/A Rain Light Rain
1:55 AM 51.1 °F - 43.5 °F 75% 29.50 in 10.0 mi SE 19.6 mph 33.4 mph 0.00 in Rain Light Rain
2:21 AM 50.0 °F - 42.8 °F 76% 29.48 in 10.0 mi SE 20.7 mph 26.5 mph N/A   Scattered Clouds
2:55 AM 50.5 °F - 44.4 °F 80% 29.47 in 10.0 mi SE 24.2 mph 34.5 mph 0.00 in Rain Light Rain
3:55 AM 49.8 °F - 46.2 °F 87% 29.45 in 10.0 mi SE 21.9 mph 31.1 mph 0.05 in Rain Light Rain
4:55 AM 50.9 °F - 46.9 °F 86% 29.43 in 10.0 mi SSE 26.5 mph 38.0 mph 0.05 in Rain Light Rain
5:55 AM 51.4 °F - 47.8 °F 87% 29.43 in 10.0 mi SSE 21.9 mph 28.8 mph 0.05 in Rain Light Rain
6:15 AM 50.0 °F - 44.6 °F 82% 29.49 in 1.5 mi SW 18.4 mph 38.0 mph N/A Rain Heavy Rain
6:17 AM 50.0 °F - 44.6 °F 82% 29.49 in 1.2 mi WSW 16.1 mph 38.0 mph N/A Rain Heavy Rain
6:55 AM 45.7 °F 40.6 °F 43.0 °F 90% 29.53 in 5.0 mi SW 10.4 mph - 0.30 in Rain Light Rain
7:55 AM 45.0 °F 41.8 °F 42.1 °F 90% 29.59 in 5.0 mi Variable 5.8 mph - 0.15 in Rain Light Rain
8:55 AM 44.8 °F 39.0 °F 43.5 °F 95% 29.62 in 10.0 mi ESE 11.5 mph - 0.08 in Rain Light Rain
9:55 AM 45.3 °F 38.7 °F 43.2 °F 92% 29.65 in 10.0 mi SE 15.0 mph - 0.02 in Rain Light Rain
10:55 AM 44.8 °F 38.7 °F 42.3 °F 91% 29.68 in 7.0 mi ESE 12.7 mph - 0.04 in Rain Light Rain
11:55 AM 44.4 °F 40.5 °F 42.6 °F 93% 29.68 in 5.0 mi East 6.9 mph - 0.08 in Rain Light Rain
12:55 PM 44.1 °F 40.8 °F 42.4 °F 94% 29.68 in 5.0 mi East 5.8 mph - 0.09 in Rain Light Rain
1:07 PM 44.6 °F 43.1 °F 42.8 °F 93% 29.68 in 7.0 mi East 3.5 mph - N/A Rain Light Rain
1:23 PM 44.6 °F 41.4 °F 42.8 °F 93% 29.67 in 5.0 mi ESE 5.8 mph - N/A Rain Light Rain
1:55 PM 44.1 °F 40.8 °F 42.4 °F 94% 29.65 in 5.0 mi East 5.8 mph - 0.12 in Rain Light Rain
2:55 PM 43.5 °F 41.9 °F 42.1 °F 95% 29.63 in 4.0 mi East 3.5 mph - 0.16 in Rain Light Rain
3:55 PM 43.7 °F 40.3 °F 42.1 °F 94% 29.57 in 7.0 mi NNE 5.8 mph - 0.12 in Rain Light Rain
4:09 PM 44.6 °F - 42.8 °F 93% 29.57 in 3.0 mi Calm Calm - N/A Rain Rain
4:13 PM 44.6 °F - 42.8 °F 93% 29.57 in 2.5 mi Calm Calm - N/A Rain Rain
4:17 PM 44.6 °F 42.2 °F 42.8 °F 93% 29.57 in 2.5 mi North 4.6 mph - N/A Rain Rain
4:25 PM 44.6 °F 42.2 °F 42.8 °F 93% 29.56 in 3.0 mi North 4.6 mph - N/A Rain Rain
4:26 PM 44.6 °F 41.4 °F 42.8 °F 93% 29.57 in 2.5 mi North 5.8 mph - N/A Rain Rain
4:55 PM 43.7 °F 41.1 °F 42.4 °F 95% 29.54 in 4.0 mi NNE 4.6 mph - 0.19 in Rain Light Rain
5:18 PM 42.8 °F 41.1 °F 42.8 °F 100% 29.53 in 6.0 mi NNE 3.5 mph - N/A Rain Light Rain
5:49 PM 42.8 °F 40.1 °F 41.0 °F 93% 29.52 in 10.0 mi North 4.6 mph - N/A   Overcast
5:55 PM 43.2 °F 41.5 °F 41.9 °F 95% 29.52 in 10.0 mi NNE 3.5 mph - 0.07 in   Overcast
6:02 PM 42.8 °F 41.1 °F 41.0 °F 93% 29.51 in 4.0 mi NNE 3.5 mph - N/A   Overcast
6:13 PM 42.8 °F 40.1 °F 42.8 °F 100% 29.50 in 2.0 mi ENE 4.6 mph - N/A Rain Light Rain
6:19 PM 42.8 °F - 42.8 °F 100% 29.50 in 2.0 mi Calm Calm - N/A Rain Light Rain
6:30 PM 42.8 °F - 42.8 °F 100% 29.50 in 5.0 mi Calm Calm - N/A Rain Light Rain
6:41 PM 42.8 °F 41.1 °F 42.8 °F 100% 29.49 in 3.0 mi West 3.5 mph - N/A Rain Light Rain
6:55 PM 43.3 °F 40.7 °F 42.3 °F 96% 29.50 in 4.0 mi West 4.6 mph - 0.01 in Rain Light Rain
6:57 PM 42.8 °F 39.3 °F 42.8 °F 100% 29.50 in 5.0 mi West 5.8 mph - N/A Rain Light Rain
7:17 PM 42.8 °F - 42.8 °F 100% 29.48 in 2.0 mi Calm Calm - N/A Rain Light Rain
7:40 PM 42.8 °F 38.6 °F 42.8 °F 100% 29.47 in 3.0 mi ENE 6.9 mph - N/A Rain Light Rain
7:41 PM 42.8 °F 38.6 °F 42.8 °F 100% 29.48 in 3.0 mi ENE 6.9 mph - N/A   Mostly Cloudy
7:55 PM 43.5 °F - 42.8 °F 97% 29.47 in 3.0 mi Calm Calm - 0.05 in   Scattered Clouds
8:04 PM 42.8 °F 40.1 °F 42.8 °F 100% 29.47 in 5.0 mi Variable 4.6 mph - N/A Rain Light Rain
8:55 PM 53.4 °F - 51.1 °F 92% - 9.0 mi SSE 15.0 mph 21.9 mph 0.06 in Rain Light Rain
9:20 PM 53.6 °F - 50.0 °F 88% 29.47 in 10.0 mi South 12.7 mph 23.0 mph N/A   Overcast
9:26 PM 53.6 °F - 51.8 °F 94% 29.47 in 10.0 mi SSE 8.1 mph - N/A Rain Light Rain
9:55 PM 54.0 °F - 50.9 °F 89% 29.45 in 9.0 mi SE 18.4 mph 26.5 mph 0.03 in Rain Light Rain
10:06 PM 53.6 °F - 51.8 °F 94% 29.45 in 10.0 mi SSE 15.0 mph 23.0 mph N/A   Mostly Cloudy
10:55 PM 53.8 °F - 50.7 °F 89% 29.42 in 10.0 mi SE 11.5 mph - 0.01 in   Mostly Cloudy
10:58 PM 53.6 °F - 50.0 °F 88% 29.42 in 10.0 mi SE 12.7 mph - N/A Rain Light Rain
11:55 PM 54.7 °F - 50.9 °F 87% 29.42 in 10.0 mi SSE 17.3 mph 27.6 mph 0.02 in Rain Light Rain